Location: Brachbach
(49.1847°N, 9.7240°E)
Time: 12:46:52
(UTC+00:00)

Nimbus 7 Rocket - Pass Details

Date: 13 August 2024
Orbit: 921 x 965 km, 99.4° (Epoch: 14 September)

Event Time Altitude Azimuth Distance (km) Brightness Sun altitude
Rises 02:25:07 0° 5° (N) 3,596 8.3 -15.0°
Reaches altitude 10° 02:28:40 10° 343° (NNW) 2,641 7.1 -14.6°
Maximum altitude 02:31:44 15° 311° (NW) 2,301 6.4 -14.2°
Drops below altitude 10° 02:34:48 10° 279° (W) 2,626 6.4 -13.9°
Enters shadow 02:35:43 - 272° (W) 2,829 6.5 -13.8°
